STARLINK-35204

Last updated on Mon Oct 20 2025 00:02:06 GMT+0000 (Coordinated Universal Time)

1 65694U 25212U 25292.25002315 -.02058346 00000+0 -56273-1 0 9993 2 65694 53.1590 282.8221 0001284 74.1045 10.9585 15.40522435 5673
UTC large
Height (km)
Speed (km/s)
/
Latitude / Longitude
Inclination (degrees)
Orbital Period (minutes)
Azimuth
Elevation
Range (km)
Doppler Factor

Next 0 passes for location: London (51.5072 / 0.1276)

Sorry there are no passes over London.